TimeEDT,TemperatureF,Dew PointF,Humidity,Sea Level PressureIn,VisibilityMPH,Wind Direction,Wind SpeedMPH,Gust SpeedMPH,PrecipitationIn,Events,Conditions,WindDirDegrees,DateUTC
12:15 AM,44.6,44.6,100,29.92,10.0,Calm,Calm,-,N/A,,Clear,0,2012-10-17 04:15:00
12:35 AM,44.6,42.8,93,29.92,10.0,Calm,Calm,-,N/A,,Clear,0,2012-10-17 04:35:00
12:55 AM,44.6,42.8,93,29.92,7.0,Calm,Calm,-,N/A,,Clear,0,2012-10-17 04:55:00
1:15 AM,44.6,42.8,93,29.92,10.0,Calm,Calm,-,N/A,,Clear,0,2012-10-17 05:15:00
1:35 AM,46.4,44.6,93,29.92,7.0,Calm,Calm,-,N/A,,Clear,0,2012-10-17 05:35:00
1:55 AM,46.4,44.6,93,29.92,10.0,North,3.5,-,N/A,,Clear,360,2012-10-17 05:55:00
2:15 AM,46.4,44.6,93,29.92,10.0,North,4.6,-,N/A,,Clear,10,2012-10-17 06:15:00
2:35 AM,46.4,44.6,93,29.92,10.0,North,3.5,-,N/A,,Clear,360,2012-10-17 06:35:00
2:55 AM,46.4,44.6,93,29.93,10.0,Calm,Calm,-,N/A,,Clear,0,2012-10-17 06:55:00
3:15 AM,44.6,42.8,93,29.93,10.0,Calm,Calm,-,N/A,,Clear,0,2012-10-17 07:15:00
3:35 AM,44.6,42.8,93,29.93,7.0,Calm,Calm,-,N/A,,Clear,0,2012-10-17 07:35:00
3:55 AM,44.6,42.8,93,29.93,7.0,Calm,Calm,-,N/A,,Clear,0,2012-10-17 07:55:00
4:15 AM,42.8,41.0,93,29.93,4.0,Calm,Calm,-,N/A,,Clear,0,2012-10-17 08:15:00
4:35 AM,42.8,41.0,93,29.93,4.0,Calm,Calm,-,N/A,,Clear,0,2012-10-17 08:35:00
4:55 AM,44.6,42.8,93,29.94,5.0,Calm,Calm,-,N/A,,Clear,0,2012-10-17 08:55:00
5:15 AM,42.8,41.0,93,29.94,4.0,Calm,Calm,-,N/A,,Clear,0,2012-10-17 09:15:00
5:35 AM,42.8,41.0,93,29.94,7.0,Calm,Calm,-,N/A,,Clear,0,2012-10-17 09:35:00
5:55 AM,42.8,42.8,100,29.94,5.0,Calm,Calm,-,N/A,,Clear,0,2012-10-17 09:55:00
6:15 AM,42.8,41.0,93,29.95,7.0,Calm,Calm,-,N/A,,Clear,0,2012-10-17 10:15:00
6:35 AM,42.8,39.2,87,29.95,3.0,Calm,Calm,-,N/A,,Clear,0,2012-10-17 10:35:00
6:55 AM,42.8,39.2,87,29.96,4.0,Calm,Calm,-,N/A,,Clear,0,2012-10-17 10:55:00
7:15 AM,42.8,41.0,93,29.96,4.0,Calm,Calm,-,N/A,,Clear,0,2012-10-17 11:15:00
7:55 AM,41.0,39.2,93,29.98,4.0,Calm,Calm,-,N/A,,Clear,0,2012-10-17 11:55:00
8:15 AM,42.8,41.0,93,29.98,7.0,Calm,Calm,-,N/A,,Clear,0,2012-10-17 12:15:00
8:35 AM,42.8,42.8,100,29.98,7.0,Calm,Calm,-,N/A,,Clear,0,2012-10-17 12:35:00
8:55 AM,46.4,44.6,93,29.98,10.0,Calm,Calm,-,N/A,,Clear,0,2012-10-17 12:55:00
9:15 AM,48.2,44.6,87,29.99,10.0,Calm,Calm,-,N/A,,Clear,0,2012-10-17 13:15:00
9:35 AM,48.2,46.4,93,30.00,10.0,Calm,Calm,-,N/A,,Clear,0,2012-10-17 13:35:00
9:55 AM,50.0,46.4,87,30.00,10.0,Calm,Calm,-,N/A,,Clear,0,2012-10-17 13:55:00
10:15 AM,51.8,48.2,88,30.00,10.0,Calm,Calm,-,N/A,,Clear,0,2012-10-17 14:15:00
10:35 AM,55.4,46.4,72,29.99,10.0,Calm,Calm,-,N/A,,Clear,0,2012-10-17 14:35:00
10:55 AM,57.2,46.4,67,29.99,10.0,Calm,Calm,-,N/A,,Clear,0,2012-10-17 14:55:00
11:15 AM,59.0,44.6,59,29.99,10.0,Calm,Calm,-,N/A,,Clear,0,2012-10-17 15:15:00
11:35 AM,60.8,46.4,59,29.98,10.0,Calm,Calm,-,N/A,,Clear,0,2012-10-17 15:35:00
11:55 AM,62.6,46.4,55,29.98,10.0,Calm,Calm,-,N/A,,Clear,0,2012-10-17 15:55:00
12:15 PM,64.4,46.4,52,29.97,10.0,South,4.6,-,N/A,,Clear,180,2012-10-17 16:15:00
12:35 PM,66.2,44.6,46,29.97,10.0,South,8.1,-,N/A,,Clear,180,2012-10-17 16:35:00
12:55 PM,68.0,44.6,43,29.96,10.0,SSW,3.5,-,N/A,,Clear,200,2012-10-17 16:55:00
1:15 PM,68.0,44.6,43,29.94,10.0,South,10.4,-,N/A,,Clear,170,2012-10-17 17:15:00
1:35 PM,69.8,42.8,38,29.94,10.0,SSW,8.1,-,N/A,,Clear,200,2012-10-17 17:35:00
1:55 PM,69.8,42.8,38,29.93,10.0,SSW,10.4,-,N/A,,Clear,200,2012-10-17 17:55:00
2:15 PM,69.8,42.8,38,29.93,10.0,South,10.4,-,N/A,,Clear,190,2012-10-17 18:15:00
2:35 PM,69.8,42.8,38,29.92,10.0,South,10.4,-,N/A,,Clear,180,2012-10-17 18:35:00
2:55 PM,71.6,41.0,33,29.92,10.0,SSW,12.7,18.4,N/A,,Clear,200,2012-10-17 18:55:00
3:15 PM,69.8,42.8,38,29.92,10.0,SSW,9.2,-,N/A,,Clear,210,2012-10-17 19:15:00
3:35 PM,71.6,41.0,33,29.91,10.0,SSW,9.2,-,N/A,,Clear,200,2012-10-17 19:35:00
3:55 PM,71.6,42.8,35,29.90,10.0,SW,6.9,10.4,N/A,,Clear,220,2012-10-17 19:55:00
4:15 PM,71.6,42.8,35,29.90,10.0,South,8.1,-,N/A,,Clear,170,2012-10-17 20:15:00
4:35 PM,71.6,41.0,33,29.90,10.0,SSW,8.1,-,N/A,,Clear,200,2012-10-17 20:35:00
4:55 PM,71.6,41.0,33,29.90,10.0,South,9.2,-,N/A,,Clear,190,2012-10-17 20:55:00
5:15 PM,69.8,42.8,38,29.90,10.0,SSW,10.4,-,N/A,,Clear,200,2012-10-17 21:15:00
5:35 PM,69.8,42.8,38,29.90,10.0,SSW,6.9,-,N/A,,Clear,200,2012-10-17 21:35:00
5:55 PM,68.0,44.6,43,29.91,10.0,South,6.9,-,N/A,,Clear,170,2012-10-17 21:55:00
6:15 PM,66.2,46.4,49,29.91,10.0,South,3.5,-,N/A,,Clear,170,2012-10-17 22:15:00
6:35 PM,64.4,46.4,52,29.91,10.0,Calm,Calm,-,N/A,,Clear,0,2012-10-17 22:35:00
6:55 PM,62.6,46.4,55,29.92,10.0,Calm,Calm,-,N/A,,Clear,0,2012-10-17 22:55:00
7:15 PM,62.6,46.4,55,29.92,10.0,Calm,Calm,-,N/A,,Clear,0,2012-10-17 23:15:00
7:35 PM,62.6,46.4,55,29.93,10.0,Calm,Calm,-,N/A,,Clear,0,2012-10-17 23:35:00
7:55 PM,60.8,46.4,59,29.93,10.0,Calm,Calm,-,N/A,,Clear,0,2012-10-17 23:55:00
8:15 PM,60.8,48.2,63,29.93,10.0,Calm,Calm,-,N/A,,Clear,0,2012-10-18 00:15:00
8:35 PM,59.0,48.2,67,29.93,10.0,Calm,Calm,-,N/A,,Clear,0,2012-10-18 00:35:00
8:55 PM,57.2,48.2,72,29.93,10.0,Calm,Calm,-,N/A,,Clear,0,2012-10-18 00:55:00
9:15 PM,57.2,48.2,72,29.93,10.0,Calm,Calm,-,N/A,,Clear,0,2012-10-18 01:15:00
9:35 PM,55.4,46.4,72,29.94,10.0,Calm,Calm,-,N/A,,Clear,0,2012-10-18 01:35:00
9:55 PM,55.4,46.4,72,29.94,10.0,Calm,Calm,-,N/A,,Clear,0,2012-10-18 01:55:00
10:15 PM,55.4,46.4,72,29.94,10.0,South,3.5,-,N/A,,Clear,180,2012-10-18 02:15:00
10:35 PM,55.4,46.4,72,29.93,10.0,South,3.5,-,N/A,,Clear,190,2012-10-18 02:35:00
10:55 PM,55.4,46.4,72,29.93,10.0,South,3.5,-,N/A,,Clear,190,2012-10-18 02:55:00
11:15 PM,53.6,46.4,77,29.93,10.0,Calm,Calm,-,N/A,,Clear,0,2012-10-18 03:15:00
11:35 PM,53.6,46.4,77,29.93,10.0,South,3.5,-,N/A,,Clear,180,2012-10-18 03:35:00
11:55 PM,55.4,46.4,72,29.93,10.0,Calm,Calm,-,N/A,,Clear,0,2012-10-18 03:55:00